Content
SEND FEEDBACK

Daily
Averages
Monthly
Summary
United States of America

PUT IN BAY, OHIO


Home > North America > United States > Ohio
Elevation: 561 feet     Latitude: 41 39N     Longitude: 082 48W

WEATHER
 
SELECT A DAY
Number of Records: 122,906;   Date Range: 12/10/00 - 8/31/14
 
SHARE

PRINT THIS DATA

[ ← Previous Day ]
WEATHER ALMANAC - FEBRUARY 4, 2013
[ Next Day → ]
[ °C ]   °F
Weather ElementAverageHighLow
Temperature19.2 °F21.4 °F (4:00 pm)17 °F (1:00 am)
Dewpoint15.4 °F18.3 °F (3:00 pm)6 °F (1:00 am)
Humidity84.3 %92 % (8:00 pm)49 % (1:00 am)
Barometer29.99 in30.06 in (1:00 am)29.92 in (4:00 pm)
Wind Speed3.4 mph6.9 mph (11:00 am)
Weather ElementAverage
Wind DirectionSSE (155.8 °)

Weather ElementTotal
Precipitation0.06 in
Heating Degree Days45.8 (Base 65)
Averaged from 25 records on February 4, 2013
WEATHER CONDITIONS BREAKOUT
WIND DIRECTION BREAKOUT
WEATHER BY HOUR - FEBRUARY 4, 2013
[ °C ]   °F
Local TimeTemperatureDewpointHumidityBarometerVisibilityWind DirectionWind SpeedGust SpeedPrecipitationEventsConditions
1:00 AM17.0 °F6.0 °F49 %30.06 inWest (270°)4.6 mph
1:00 AM17.1 °F6.1 °F62 %30.06 inWest (270°)4.6 mph
2:00 AM18.0 °F9.9 °F71 %30.06 inWNW (290°)4.6 mph
3:00 AM18.1 °F11.7 °F76 %30.06 inWest (280°)4.6 mph
4:00 AM18.0 °F12.7 °F80 %30.05 inWest (280°)3.5 mph
6:00 AM17.4 °F13.8 °F86 %30.04 inSouth (190°)2.3 mph
7:00 AM17.1 °F13.8 °F87 %30.03 inCalm
7:00 AM17.0 °F14.0 °F82 %30.03 inCalm
9:00 AM18.9 °F16.0 °F89 %30.03 inCalm0.01 in
10:00 AM19.9 °F17.6 °F91 %30.02 inSW (230°)5.8 mph0.02 in
11:00 AM20.5 °F17.8 °F89 %30.02 inSW (230°)6.9 mph0.02 in
12:00 PM20.8 °F18.0 °F89 %30.00 inSW (230°)5.8 mph
1:00 PM21.2 °F17.8 °F87 %29.97 inSSW (210°)4.6 mph
1:00 PM21.0 °F18.0 °F82 %29.97 inSSW (210°)4.6 mph
2:00 PM20.8 °F18.0 °F89 %29.94 inSouth (180°)4.6 mph
3:00 PM21.0 °F18.3 °F89 %29.93 inSouth (170°)3.5 mph0.01 in
4:00 PM21.4 °F18.3 °F88 %29.92 inSE (130°)1.2 mph
5:00 PM20.7 °F17.8 °F89 %29.92 inSouth (170°)2.3 mph
6:00 PM20.1 °F17.6 °F90 %29.92 inESE (120°)1.2 mph
7:00 PM19.8 °F17.6 °F91 %29.92 inNE (50°)2.3 mph
7:00 PM20.0 °F18.0 °F86 %29.92 inNE (50°)2.3 mph
8:00 PM19.0 °F17.1 °F92 %29.93 inENE (60°)3.5 mph
9:00 PM18.7 °F16.5 °F91 %29.94 inNE (40°)3.5 mph
10:00 PM18.1 °F15.8 °F91 %29.96 inNNE (30°)4.6 mph
11:00 PM18.1 °F15.8 °F91 %29.94 inNE (50°)3.5 mph
Hourly data recorded from CXHA, located miles away from Put In Bay, Ohio







STORIES FROM OUR PARTNERS